Miscellaneous Local Product
Issued by NWS Hastings, NE

Home | Current Version | Previous Version | Text Only | Print | Product List | Glossary Off
Versions: 1 2 3 4 5 6 7 8 9 10 11 12 13 14 15 16 17 18 19 20 21 22 23 24 25 26 27 28 29 30 31 32 33 34 35 36 37 38 39 40 41 42 43 44 45 46 47 48 49 50

000
AXUS43 KGID 192002
MISGRI

GID CWA HOURLY WEATHER ROUNDUP
NATIONAL WEATHER SERVICE HASTINGS NE
300 PM CDT TUE AUG 19 2014

NOTE: "FAIR" INDICATES FEW OR NO CLOUDS BELOW 12,000 FEET WITH NO
SIGNIFICANT WEATHER AND/OR OBSTRUCTIONS TO VISIBILITY.

...SOUTH CENTRAL NEBRASKA...

CITY           SKY/WX    TMP DP  RH WIND       PRES   REMARKS
GRAND ISLAND   SUNNY     87  66  49 VRB6      29.84F
HASTINGS       SUNNY     86  66  51 SE7       29.83F
KEARNEY        SUNNY     86  66  51 E8        29.84F
ORD            SUNNY     85  65  51 E9        29.81F
AURORA         SUNNY     87  69  53 SE7       29.83F HX  91
LEXINGTON      MOSUNNY   85  68  57 SE9       29.83F
HOLDREGE       SUNNY     85  66  52 E10       29.83F
HEBRON         SUNNY     89  62  39 SW3       29.82F

...NEBRASKA PANHANDLE...

CITY           SKY/WX    TMP DP  RH WIND       PRES   REMARKS
CHADRON        PTSUNNY   93  51  23 W3        29.76F HX  90
ALLIANCE       PTSUNNY   89  53  29 S13G22    29.84F
SCOTTSBLUFF    CLOUDY    92  58  31 E8        29.83F HX  91
SIDNEY         SUNNY     92  52  25 S10G23    29.89F

...WESTERN AND NORTH CENTRAL NEBRASKA...

CITY           SKY/WX    TMP DP  RH WIND       PRES   REMARKS
VALENTINE      MOSUNNY   90  59  35 SE12G20   29.81F
AINSWORTH      SUNNY     85  60  42 SE12      29.82F
ONEILL         SUNNY     85  62  45 SE5       29.83F
BROKEN BOW     SUNNY     86  66  51 SE10      29.82F
IMPERIAL       MOSUNNY   89  55  31 E10       29.83F
NORTH PLATTE   MOSUNNY   89  64  43 E17       29.81F HX  90
MCCOOK         MOSUNNY   91  59  33 SE9       29.82F HX  90

...EASTERN NEBRASKA...

CITY           SKY/WX    TMP DP  RH WIND       PRES   REMARKS
NORFOLK        SUNNY     85  62  46 S6        29.82F
SO SIOUX CITY  SUNNY     85  63  47 CALM      29.81F
TEKAMAH        SUNNY     88  63  43 NE5       29.81F
COLUMBUS       SUNNY     84  64  51 S3        29.83F
ALBION         SUNNY     83  62  48 S8        29.84S
OMAHA EPPLEY   MOSUNNY   89  61  38 N8        29.81F
OFFUTT AFB     SUNNY     88  64  45 E5        29.80F
MILLARD        SUNNY     88  61  39 N6        29.81S
LINCOLN        SUNNY     91  62  37 NE8       29.81F HX  91
NEBRASKA CITY  SUNNY     86  64  48 E5        29.82S
BEATRICE       SUNNY     90  66  45 SW8       29.82S HX  93
FALLS CITY     SUNNY     91  70  49 SE8       29.81F HX  96

...NORTHERN KANSAS...

CITY           SKY/WX    TMP DP  RH WIND       PRES   REMARKS
GOODLAND       MOSUNNY   94  54  25 SE10      29.85F HX  92
HILL CITY      PTSUNNY   90  65  43 SE10      29.81F HX  92
NORTON         CLEAR     90  57  33 SE10G18   29.82F
PHILLIPSBURG   SUNNY     90  63  40 SE8G16    29.81F HX  90
BELOIT           N/A     91  64  40 S13       29.80F HX  93
HAYS           PTSUNNY   91  63  38 SE16      29.82F HX  92
RUSSELL        PTSUNNY   92  60  34 S14G23    29.81F HX  91
CONCORDIA      SUNNY     89  71  55 S13       29.82F HX  95
SALINA         SUNNY     94  61  33 S8        29.81F HX  94
TOPEKA         SUNNY     94  71  47 E8        29.81F HX 101



USA.gov is the U.S. government's official web portal to all federal, state and local government web resources and services.